Weather History for KLAR - November, 2013

Change the Weather History Date:

Wednesday, November 27, 2013

  Actual Average Record
Temperature  
Mean Temperature 35 °F 24 °F  
Max Temperature 51 °F 35 °F 66 °F (1950)
Min Temperature 18 °F 13 °F -21 °F (1976)
Degree Days  
Heating Degree Days 30 41  
Month to date heating degree days 894 945  
Since 1 July heating degree days 2035 2188  
Cooling Degree Days 0 0  
Month to date cooling degree days 0 0  
Year to date cooling degree days 162 67  
Moisture  
Dew Point 16 °F    
Average Humidity 52    
Maximum Humidity 80    
Minimum Humidity 24    
Precipitation  
Precipitation 0.00 in 0.02 in 0.25 in (1960)
Month to date precipitation 0.20 0.50  
Year to date precipitation 11.66 10.56  
Sea Level Pressure  
Sea Level Pressure 30.15 in    
Wind  
Wind Speed 8 mph (SSW)    
Max Wind Speed 21 mph    
Max Gust Speed 28 mph    
Visibility 10 miles    
Events      
T = Trace of Precipitation, MM = Missing Value Source: NWS Daily Summary

Daily Weather History Graph

Daily Weather History Graph

Search for Another Location

Airport or City:

Trip Planner

Search our weather history database for the weather conditions in past years. The results will help you decide how hot, cold, wet, or windy it might be!

Date:

Astronomy

Nov. 27, 2013 Rise Set
Actual Time 7:05 AM MST 4:35 PM MST
Civil Twilight 6:34 AM MST 5:05 PM MST
Nautical Twilight 6:00 AM MST 5:40 PM MST
Astronomical Twilight 5:27 AM MST 6:13 PM MST
Moon 1:06 AM MST (11/27) 1:17 PM MST (11/27)
Length of Visible Light 10h 31m
Length of Day
9h 30m
Waning Crescent, 31% of the Moon is Illuminated
Nov 27
Waning Crescent
Dec 2
New
Dec 9
First Quarter
Dec 17
Full
Dec 25
Last Quarter

Hourly Weather History & Observations

Time (MST) Temp. Windchill Dew Point Humidity Pressure Visibility Wind Dir Wind Speed Gust Speed Precip Events Conditions
12:53 AM 21.0 °F - 14.0 °F 74% 30.25 in 10.0 mi Calm Calm - N/A   Clear
1:53 AM 19.9 °F 11.1 °F 14.0 °F 78% 30.24 in 10.0 mi South 6.9 mph - N/A   Clear
2:53 AM 19.9 °F 11.1 °F 14.0 °F 78% 30.23 in 10.0 mi WSW 6.9 mph - N/A   Clear
3:53 AM 21.9 °F 11.0 °F 14.0 °F 72% 30.22 in 10.0 mi SSW 10.4 mph - N/A   Clear
4:53 AM 25.0 °F 14.8 °F 16.0 °F 69% 30.23 in 10.0 mi SSW 10.4 mph - N/A   Clear
5:53 AM 26.1 °F 16.2 °F 16.0 °F 66% 30.25 in 10.0 mi SSW 10.4 mph - N/A   Clear
6:53 AM 28.9 °F 16.9 °F 16.0 °F 58% 30.25 in 10.0 mi SW 17.3 mph - N/A   Clear
7:53 AM 30.0 °F 18.7 °F 17.1 °F 59% 30.24 in 10.0 mi SSW 16.1 mph - N/A   Clear
8:53 AM 37.0 °F 28.5 °F 18.0 °F 46% 30.18 in 10.0 mi SW 13.8 mph - N/A   Clear
9:53 AM 42.1 °F 33.9 °F 18.0 °F 38% 30.17 in 10.0 mi SSW 17.3 mph - N/A   Clear
10:53 AM 46.0 °F 39.6 °F 17.1 °F 31% 30.14 in 10.0 mi SSW 15.0 mph - N/A   Clear
11:53 AM 48.9 °F - 17.1 °F 28% 30.10 in 10.0 mi Calm Calm - N/A   Clear
12:53 PM 48.9 °F - 16.0 °F 27% 30.07 in 10.0 mi Calm Calm - N/A   Clear
1:53 PM 50.0 °F - 17.1 °F 27% 30.06 in 10.0 mi WSW 5.8 mph - N/A   Clear
2:53 PM 50.0 °F - 16.0 °F 26% 30.05 in 10.0 mi WSW 18.4 mph - N/A   Clear
3:53 PM 45.0 °F 38.9 °F 16.0 °F 31% 30.07 in 10.0 mi WSW 12.7 mph - N/A   Clear
4:53 PM 39.0 °F 34.8 °F 16.0 °F 39% 30.10 in 10.0 mi SW 5.8 mph - N/A   Clear
5:53 PM 39.9 °F 36.7 °F 17.1 °F 40% 30.11 in 10.0 mi Variable 4.6 mph - N/A   Clear
6:53 PM 30.9 °F 24.3 °F 17.1 °F 57% 30.14 in 10.0 mi ENE 6.9 mph - N/A   Clear
7:53 PM 30.9 °F 25.2 °F 17.1 °F 57% 30.14 in 10.0 mi ENE 5.8 mph - N/A   Clear
8:53 PM 30.9 °F - 17.1 °F 57% 30.11 in 10.0 mi Calm Calm - N/A   Clear
9:53 PM 27.0 °F 23.0 °F 16.0 °F 63% 30.10 in 10.0 mi SE 3.5 mph - N/A   Clear
10:53 PM 30.0 °F 26.5 °F 16.0 °F 56% 30.06 in 10.0 mi SSE 3.5 mph - N/A   Clear
11:53 PM 26.1 °F 19.4 °F 16.0 °F 66% 30.07 in 10.0 mi SSE 5.8 mph - N/A   Clear